Hourly Data Report for July 30, 2021

RANKIN INLET A
NUNAVUT
Current Station Operator: NAVCAN

62°48'38.000" N
92°06'53.000" W
32.30 m
2303405
71083
YRT

Download Data

Hourly Data (July 2021)
Hourly Data Report for July 30, 2021
TIME
LST
Temp Definition
°C
Dew Point Definition
°C
Rel Hum Definition
%
Precip. Amount Definition
mm

Wind Dir Definition
10's deg

Wind Spd Definition
km/h
Visibility Definition
km
Stn Press Definition
kPa
Hmdx Definition


Wind Chill Definition


Weather Definition


00:00 7.1 3.5 77   13 32 24.1 100.78     Cloudy
01:00 7.0 3.6 79   12 35 24.1 100.69     Rain
02:00 6.6 4.4 85   12 34 24.1 100.63     Rain
03:00 6.2 4.2 87   12 32 16.1 100.65     Rain
04:00 5.7 4.0 89   11 32 12.9 100.65     Rain
05:00 5.8 4.3 90   11 37 16.1 100.64     Rain
06:00 5.9 4.5 90   11 36 16.1 100.64     Rain
07:00 5.7 4.6 92   11 41 8.1 100.68     Rain, Fog
08:00 5.8 4.8 93   10 39 4.8 100.71     Rain, Fog
09:00 5.9 5.0 94   10 34 4.8 100.73     Rain, Fog
10:00 6.2 5.4 94   10 31 6.4 100.79     Rain, Fog
11:00 6.5 5.7 94   10 27 6.4 100.86     Rain, Fog
12:00 6.5 5.0 90   9 30 8.1 100.95     Rain, Fog
13:00 7.0 5.2 88   10 21 16.1 101.01     LegendNANA
14:00 6.9 5.1 88   9 26 16.1 101.06     LegendNANA
15:00 7.1 5.2 88   9 22 16.1 101.11     Cloudy
16:00 6.9 5.1 88   9 16 16.1 101.15     LegendNANA
17:00 7.2 5.0 86   8 20 16.1 101.21     LegendNANA
18:00 7.3 5.0 85   9 16 24.1 101.29     Mostly Cloudy
19:00 7.0 4.8 86   9 13 24.1 101.32     LegendNANA
20:00 6.8 4.6 85   8 9 24.1 101.34     LegendNANA
21:00 6.7 4.3 84   8 8 24.1 101.36     Mostly Cloudy
22:00 6.7 4.1 83   11 7 24.1 101.37     LegendNANA
23:00 6.5 4.2 85   15 4 24.1 101.38     LegendNANA

Notes on Data Quality.

Legend

  • E = Estimated
  • M = Missing
  • NA = Not Available*
  • [empty] = Indicates an unobserved value
Date modified: